Location: Newark
(32.9900°N, 111.5400°W)
Time: 05:48:20
(UTC+00:00)

N. Korean satellite - Pass Details

Date: 29 November 2019
Orbit: 456 x 506 km, 97.2° (Epoch: 05 December)

Event Time Altitude Azimuth Distance (km) Brightness Sun altitude
Rises 01:24:23 0° 201° (SSW) 2,572 10.8 -13.5°
Reaches altitude 10° 01:26:57 10° 220° (SW) 1,701 10.2 -14.0°
Maximum altitude 01:29:31 18° 265° (W) 1,283 9.8 -14.5°
Drops below altitude 10° 01:32:08 10° 310° (NW) 1,719 9.8 -15.0°
Sets 01:34:45 0° 330° (NNW) 2,611 10.5 -15.6°
